TimeCDT,TemperatureF,Dew PointF,Humidity,Sea Level PressureIn,VisibilityMPH,Wind Direction,Wind SpeedMPH,Gust SpeedMPH,PrecipitationIn,Events,Conditions,WindDirDegrees,DateUTC
12:56 AM,66.9,62.1,84,29.97,-9999.0,Calm,Calm,-,N/A,,Clear,0,2013-09-30 05:56:00
1:56 AM,66.0,62.1,87,29.96,-9999.0,Calm,Calm,-,N/A,,Clear,0,2013-09-30 06:56:00
2:56 AM,66.9,61.0,81,29.95,-9999.0,Calm,Calm,-,N/A,,Clear,0,2013-09-30 07:56:00
3:56 AM,66.0,61.0,84,29.96,-9999.0,Calm,Calm,-,N/A,,Clear,0,2013-09-30 08:56:00
4:56 AM,66.9,61.0,81,29.98,-9999.0,Calm,Calm,-,N/A,,Mostly Cloudy,0,2013-09-30 09:56:00
5:56 AM,66.0,61.0,84,29.98,-9999.0,ESE,4.6,-,N/A,,Mostly Cloudy,120,2013-09-30 10:56:00
6:56 AM,66.0,61.0,84,30.00,-9999.0,Calm,Calm,-,N/A,,Scattered Clouds,0,2013-09-30 11:56:00
7:56 AM,66.9,61.0,81,30.01,-9999.0,ESE,3.5,-,N/A,,Scattered Clouds,110,2013-09-30 12:56:00
8:56 AM,68.0,62.1,81,30.02,-9999.0,ESE,3.5,-,N/A,,Mostly Cloudy,110,2013-09-30 13:56:00
9:56 AM,71.1,64.0,78,30.03,-9999.0,East,5.8,-,0.00,,Mostly Cloudy,100,2013-09-30 14:56:00
10:56 AM,75.0,66.0,73,30.02,-9999.0,East,5.8,-,N/A,,Clear,90,2013-09-30 15:56:00
11:56 AM,80.1,66.9,64,30.01,-9999.0,Calm,Calm,-,N/A,,Clear,0,2013-09-30 16:56:00
12:56 PM,82.0,64.0,54,29.99,-9999.0,East,3.5,-,N/A,,Clear,90,2013-09-30 17:56:00
1:56 PM,82.9,63.0,51,29.96,-9999.0,Calm,Calm,-,N/A,,Scattered Clouds,0,2013-09-30 18:56:00
2:56 PM,82.0,63.0,52,29.95,-9999.0,East,3.5,-,N/A,,Mostly Cloudy,100,2013-09-30 19:56:00
3:56 PM,82.0,64.0,54,29.95,-9999.0,Calm,Calm,-,N/A,,Mostly Cloudy,0,2013-09-30 20:56:00
4:56 PM,80.1,66.9,64,29.96,-9999.0,ESE,4.6,-,N/A,,Overcast,120,2013-09-30 21:56:00
5:56 PM,78.1,66.9,68,29.97,-9999.0,Calm,Calm,-,N/A,,Overcast,0,2013-09-30 22:56:00
6:56 PM,75.9,70.0,82,29.98,-9999.0,Calm,Calm,-,N/A,,Overcast,0,2013-09-30 23:56:00
7:56 PM,75.0,68.0,79,30.00,-9999.0,Calm,Calm,-,N/A,,Overcast,0,2013-10-01 00:56:00
8:56 PM,73.9,66.9,79,30.00,-9999.0,SE,3.5,-,N/A,,Overcast,140,2013-10-01 01:56:00
9:56 PM,73.0,66.9,81,30.01,-9999.0,SSE,5.8,-,N/A,,Clear,150,2013-10-01 02:56:00
10:56 PM,72.0,66.9,84,30.02,-9999.0,SSE,3.5,-,N/A,,Clear,150,2013-10-01 03:56:00
11:56 PM,71.1,66.0,84,30.02,-9999.0,SSE,3.5,-,N/A,,Clear,150,2013-10-01 04:56:00